PDT,Max TemperatureF,Mean TemperatureF,Min TemperatureF,Max Dew PointF,MeanDew PointF,Min DewpointF,Max Humidity, Mean Humidity, Min Humidity, Max Sea Level PressureIn, Mean Sea Level PressureIn, Min Sea Level PressureIn, Max VisibilityMiles, Mean VisibilityMiles, Min VisibilityMiles, Max Wind SpeedMPH, Mean Wind SpeedMPH, Max Gust SpeedMPH,PrecipitationIn, CloudCover, Events, WindDirDegrees
2013-7-1,87,76,66,72,70,66,100,80,58,29.96,29.94,29.91,10,10,10,16,7,23,0.00,2,Rain,227
2013-7-2,84,75,66,73,70,66,100,79,55,30.06,30.02,29.99,10,10,10,16,9,23,0.00,1,,220
2013-7-3,80,71,62,61,57,50,88,53,34,30.12,30.06,30.02,10,10,10,16,12,25,0.00,0,,219
2013-7-4,73,65,57,59,56,54,94,70,57,30.12,30.08,30.00,10,10,10,16,14,22,0.00,1,,226
2013-7-5,71,64,57,57,55,54,88,71,60,30.06,30.02,29.96,10,10,10,17,13,23,0.00,4,,228
2013-7-6,75,66,57,61,59,57,100,78,57,29.97,29.92,29.85,10,10,7,16,9,22,0.00,2,,218
2013-7-7,75,66,59,63,62,59,100,84,65,29.95,29.92,29.87,10,10,10,18,12,26,0.00,1,,224
2013-7-8,78,68,57,61,59,57,100,73,50,30.07,30.04,30.00,10,10,10,15,11,22,0.00,1,,224
2013-7-9,78,62,55,68,63,55,100,91,69,30.09,30.07,30.03,10,10,10,8,2,,0.00,0,,270
2013-7-10,78,68,59,63,60,57,100,64,47,30.05,29.97,29.91,10,10,10,15,10,23,0.00,0,,220
2013-7-11,75,63,53,55,53,52,94,65,47,30.07,30.03,29.95,10,10,10,16,11,22,0.00,1,,223
2013-7-12,71,62,53,55,54,52,100,66,50,30.02,30.01,30.00,10,10,10,14,10,20,0.00,3,,230
2013-7-13,80,65,50,61,57,50,100,68,45,30.18,30.11,30.01,10,10,10,7,3,,0.00,1,,260
2013-7-14,86,68,51,66,60,52,100,66,37,30.11,30.03,29.94,10,10,10,14,4,23,0.00,0,,242
2013-7-15,86,70,55,63,59,55,100,61,43,30.02,29.93,29.81,10,10,10,8,4,,0.00,0,,253
2013-7-16,84,76,68,66,59,52,68,51,42,29.86,29.83,29.81,10,10,10,17,10,24,0.00,5,,51
2013-7-17,77,66,60,61,60,59,100,79,57,30.17,30.14,30.12,10,10,10,15,9,22,0.00,4,,213
2013-7-18,80,68,57,64,62,57,100,79,54,30.20,30.14,30.06,10,10,10,15,8,22,0.00,1,,225
2013-7-19,69,62,59,63,61,59,100,91,78,30.13,30.12,30.09,10,10,10,15,8,21,0.00,0,,233
2013-7-20,75,67,59,64,62,59,100,83,69,30.06,30.01,29.93,10,10,10,18,11,26,0.00,1,,226
2013-7-21,78,66,57,63,61,57,100,81,57,29.97,29.94,29.88,10,10,10,18,11,25,0.00,1,,230
2013-7-22,80,70,59,64,62,59,100,77,54,30.01,29.99,29.94,10,10,10,18,12,28,0.00,1,,226
2013-7-23,86,72,57,64,63,57,100,69,45,30.03,29.98,29.91,10,10,10,15,6,22,0.00,3,,218
2013-7-24,87,74,60,66,65,61,100,67,43,30.03,29.99,29.94,10,10,10,16,9,22,0.00,0,,223
2013-7-25,82,70,60,64,63,61,100,76,51,30.06,30.05,30.03,10,10,10,14,9,22,0.00,0,,221
2013-7-26,,,,,,,,,,,,,,,,,,,,,,
2013-7-27,,,,,,,,,,,,,,,,,,,,,,
2013-7-28,,,,,,,,,,,,,,,,,,,,,,
2013-7-29,77,68,59,59,57,55,94,68,50,30.01,29.97,29.92,10,10,10,15,8,23,0.00,6,,224
2013-7-30,82,70,59,63,61,59,100,72,45,30.12,30.09,30.04,10,10,10,16,9,22,0.00,2,,225
2013-7-31,69,64,60,64,63,61,100,90,78,30.11,30.07,30.03,10,10,10,12,7,17,0.00,7,,220